Fountain Dale, PA

12:47 AM EDT on July 26, 2017 (GMT -0400)
Fountain Dale

Weather History for KRYT - August, 2013

Change the Weather History Date:

Sunday, August 18, 2013

  Actual Average (KHGR) Record (KHGR)
Temperature  
Mean Temperature 68 °F -  
Max Temperature 73 °F 81 °F 95 °F (2002)
Min Temperature 64 °F 63 °F 59 °F (2007)
Cooling Degree Days 4    
Growing Degree Days 18 (Base 50)    
Moisture  
Dew Point 58 °F    
Average Humidity 69    
Maximum Humidity 78    
Minimum Humidity 55    
Precipitation  
Precipitation 0.18 in - - ()
Sea Level Pressure  
Sea Level Pressure 30.20 in    
Wind  
Wind Speed 0 mph (North)    
Max Wind Speed 4 mph    
Max Gust Speed -    
Visibility 8 miles    
Events Rain    
Averages and records for this station are not official NWS values.
T = Trace of Precipitation, MM = Missing Value Source: NWS Daily Summary

Daily Weather History Graph

Daily Weather History Graph

Search for Another Location

Airport or City:

Trip Planner

Search our weather history database for the weather conditions in past years. The results will help you decide how hot, cold, wet, or windy it might be!

Date:

Astronomy

Aug. 18, 2013 Rise Set
Actual Time 6:24 AM EDT 8:01 PM EDT
Civil Twilight 5:56 AM EDT 8:29 PM EDT
Nautical Twilight 5:21 AM EDT 9:04 PM EDT
Astronomical Twilight 4:44 AM EDT 9:40 PM EDT
Moon 6:05 PM EDT (8/18) 3:32 AM EDT (8/18)
Length of Visible Light 14h 33m
Length of Day
13h 36m
Waxing Gibbous, 92% of the Moon is Illuminated
Aug 18
Waxing Gibbous
Aug 20
Full
Aug 28
Last Quarter
Sep 5
New
Sep 12
First Quarter

Hourly Weather History & Observations

Time (EDT) Temp. Dew Point Humidity Pressure Visibility Wind Dir Wind Speed Gust Speed Precip Events Conditions
12:53 AM 69.1 °F 59.0 °F 70% 30.22 in 10.0 mi Calm Calm - N/A   Overcast
1:53 AM 70.0 °F 59.0 °F 68% 30.21 in 10.0 mi Calm Calm - N/A   Mostly Cloudy
2:53 AM 68.0 °F 59.0 °F 73% 30.20 in 9.0 mi Calm Calm - 0.00 in Rain Light Rain
3:53 AM 68.0 °F 59.0 °F 73% 30.20 in 6.0 mi Calm Calm - 0.02 in Rain Light Rain
4:53 AM 68.0 °F 60.1 °F 76% 30.19 in 8.0 mi Calm Calm - 0.01 in Rain Light Rain
5:53 AM 66.9 °F 57.9 °F 73% 30.21 in 9.0 mi Calm Calm - 0.01 in Rain Light Rain
6:53 AM 64.9 °F 57.0 °F 75% 30.22 in 7.0 mi Calm Calm - 0.02 in Rain Light Rain
7:40 AM 66.2 °F 57.2 °F 73% 30.25 in 5.0 mi Calm Calm - 0.01 in   Haze
7:53 AM 66.0 °F 59.0 °F 78% 30.22 in 2.5 mi Calm Calm - 0.01 in   Haze
8:53 AM 68.0 °F 59.0 °F 73% 30.24 in 10.0 mi Calm Calm - 0.00 in   Overcast
10:53 AM 70.0 °F 59.0 °F 68% 30.26 in 9.0 mi Calm Calm - 0.03 in Rain Light Rain
11:53 AM 69.1 °F 57.9 °F 68% 30.24 in 9.0 mi Calm Calm - 0.01 in Rain Light Rain
12:53 PM 69.1 °F 57.9 °F 68% 30.22 in 9.0 mi Calm Calm - 0.02 in Rain Light Rain
1:53 PM 69.1 °F 57.9 °F 68% 30.21 in 10.0 mi Variable 3.5 mph - 0.03 in Rain Light Rain
2:53 PM 70.0 °F 57.0 °F 63% 30.22 in 10.0 mi Calm Calm - 0.02 in Rain Light Rain
3:53 PM 71.1 °F 55.0 °F 57% 30.19 in 10.0 mi Calm Calm - 0.00 in   Clear
4:53 PM 72.0 °F 55.9 °F 57% 30.18 in 10.0 mi Calm Calm - 0.00 in   Partly Cloudy
5:53 PM 73.0 °F 55.9 °F 55% 30.17 in 10.0 mi Calm Calm - N/A   Mostly Cloudy
6:53 PM 72.0 °F 59.0 °F 64% 30.17 in 10.0 mi Calm Calm - N/A   Overcast
7:53 PM 70.0 °F 60.1 °F 71% 30.17 in 10.0 mi Calm Calm - N/A   Overcast
8:53 PM 66.9 °F 59.0 °F 76% 30.17 in 9.0 mi Calm Calm - N/A   Partly Cloudy
10:53 PM 64.9 °F 57.0 °F 75% 30.18 in 7.0 mi Calm Calm - N/A   Clear
11:53 PM 64.9 °F 57.0 °F 75% 30.17 in 7.0 mi Calm Calm - N/A   Clear